Regional Weather Roundup
Issued by NWS

Home | Current Version | Previous Version | Graphics & Text | Print | Product List | Glossary On
Versions: 1 2 3 4 5 6 7 8 9 10 11 12 13 14 15 16 17 18 19 20 21 22 23 24 25 26 27 28 29 30 31 32 33 34 35 36 37 38 39 40 41 42 43 44 45 46 47 48 49 50
000
ASUS43 KIND 232309
RWRIN

WEATHER ROUNDUP FOR INDIANA
NATIONAL WEATHER SERVICE INDIANAPOLIS IN
700 PM EDT THU OCT 23 2014

NOTE: "FAIR" INDICATES FEW OR NO CLOUDS BELOW 12,000 FEET WITH NO
SIGNIFICANT WEATHER AND/OR OBSTRUCTIONS TO VISIBILITY.

* - STATION DOES NOT REPORT WEATHER SUCH AS PRECIPITATION OR FOG.

+ - STATION NOT QUALITY CONTROLLED BY THE NATIONAL WEATHER SERVICE.
    USE DATA WITH CAUTION...ESPECIALLY DEWPOINT AND RELATIVE
    HUMIDITY OBSERVATIONS.

INZ001>003-010>013-019-020-240000-
NORTHWEST INDIANA

CITY           SKY/WX    TMP DP  RH WIND       PRES   REMARKS
GARY /AIRPORT/ MOCLDY    57  39  51 S6        30.09F
KNOX *+        CLOUDY    53  40  61 S5        30.10S
LA PORTE +     CLOUDY    55  42  60 CALM      30.11S
MICHIGAN CITY+ CLOUDY    54  37  54 SE3       30.10R
MONTICELLO +   CLOUDY    53  42  65 S3        30.11F
RENSSELAER +   CLOUDY    54  41  62 S3        30.11S
VALPARAISO     CLOUDY    54  40  59 S3        30.10S

$$

LMZ046-743>745-240000-
SOUTHERN LAKE MICHIGAN

STATION/POSITION TIME  TEMP WIND        PRES
                       AIR  DIR/SP/G
                 (UTC) (F)  (DEG/KT/KT) (MB)
MICHIGAN CITY    2300   56  170/  7/  9   N/A

$$

INZ004-005-014>016-021>024-240000-
NORTH CENTRAL INDIANA

CITY           SKY/WX    TMP DP  RH WIND       PRES   REMARKS
ELKHART        CLEAR     50  39  66 SE8       30.09F
GOSHEN         MOCLDY    51  41  68 S3        30.10F
LOGANSPORT +   CLOUDY    48  41  76 SW5       30.13F
PERU/GRISSOM   MOCLDY    51  47  87 S7        30.11F
ROCHESTER +    CLOUDY    55  43  62 CALM      30.12S
SOUTH BEND     CLOUDY    54  41  61 S5        30.11F
WARSAW +       CLOUDY    52  41  66 CALM      30.11F

$$

INZ006>009-017-018-025>027-240000-
NORTHEAST INDIANA

CITY           SKY/WX    TMP DP  RH WIND       PRES   REMARKS
ANGOLA *+      CLEAR     48  43  81 CALM      30.12S
AUBURN +       CLOUDY    50  37  62 CALM      30.13S
FORT WAYNE     CLOUDY    52  39  61 CALM      30.14S
HUNTINGTON +   CLOUDY    54  40  60 CALM      30.13S

$$

INZ028-029-035-036-043>045-051>053-240000-
WEST CENTRAL INDIANA

CITY           SKY/WX    TMP DP  RH WIND       PRES   REMARKS
GREENCASTLE +  CLOUDY    52  41  66 CALM      30.12F
LAFAYETTE      CLOUDY    52  43  71 CALM      30.12S
TERRE HAUTE    CLOUDY    54  42  64 S5        30.13F

$$

INZ030>032-037>040-046>048-054>057-064-065-240000-
CENTRAL INDIANA

CITY           SKY/WX    TMP DP  RH WIND       PRES   REMARKS
CP ATTERBURY + CLOUDY    54  41  62 CALM      30.15S
COLUMBUS       CLEAR     54  41  62 CALM      30.15S
FRANKFORT +    CLOUDY    52  41  66 CALM      30.14S
INDIANAPOLIS   CLOUDY    55  38  52 SE3       30.13F
-EAGLE CREEK   CLOUDY    54  40  59 CALM      30.13F
KOKOMO *+      CLOUDY    52  43  71 SE5       30.13F
MARION +       MOCLDY    51  38  61 CALM      30.14S
MT COMFORT *+  CLOUDY    52  34  50 CALM      30.14S
SHELBYVILLE    CLOUDY    52  40  63 CALM      30.14S
ZIONSVILLE +   CLOUDY    53  40  61 SE3       30.14S

$$

INZ033-034-041-042-049-050-058-059-240000-
EAST CENTRAL INDIANA

CITY           SKY/WX    TMP DP  RH WIND       PRES   REMARKS
MUNCIE         MOCLDY    52  41  66 CALM      30.14S

$$

INZ060-061-067>069-081>083-085>088-240000-
SOUTHWEST INDIANA

CITY           SKY/WX    TMP DP  RH WIND       PRES   REMARKS
EVANSVILLE     CLOUDY    57  45  64 CALM      30.14S
HUNTINGBURG *+ CLOUDY    55  39  54 N3        30.14F
WASHINGTON +   CLOUDY    54  49  83 CALM      30.13F

$$

INZ062-063-066-070>080-084-089>092-240000-
SOUTH CENTRAL AND SOUTHEAST INDIANA

CITY           SKY/WX    TMP DP  RH WIND       PRES   REMARKS
BLOOMINGTON    CLOUDY    54  42  64 CALM      30.13F

$$




USA.gov is the U.S. government's official web portal to all federal, state and local government web resources and services.